TimeMST,TemperatureF,Dew PointF,Humidity,Sea Level PressureIn,VisibilityMPH,Wind Direction,Wind SpeedMPH,Gust SpeedMPH,PrecipitationIn,Events,Conditions,WindDirDegrees,DateUTC
12:53 AM,48.9,39.9,71,29.97,10.0,SW,4.6,-,N/A,,Clear,230,2012-12-25 07:53:00
1:53 AM,48.0,39.9,74,29.98,10.0,WSW,8.1,-,N/A,,Clear,250,2012-12-25 08:53:00
2:53 AM,48.0,39.9,74,29.99,10.0,West,8.1,-,N/A,,Clear,260,2012-12-25 09:53:00
3:53 AM,48.0,39.9,74,29.98,10.0,West,6.9,-,N/A,,Clear,280,2012-12-25 10:53:00
4:53 AM,44.1,39.0,82,29.99,10.0,WSW,8.1,-,N/A,,Clear,240,2012-12-25 11:53:00
5:53 AM,43.0,37.9,82,30.01,10.0,West,3.5,-,N/A,,Clear,260,2012-12-25 12:53:00
6:53 AM,43.0,37.9,82,30.02,10.0,Calm,Calm,-,N/A,,Clear,0,2012-12-25 13:53:00
7:53 AM,43.0,37.0,80,30.04,10.0,Calm,Calm,-,N/A,,Clear,0,2012-12-25 14:53:00
8:53 AM,46.0,36.0,68,30.04,10.0,WSW,5.8,-,N/A,,Clear,250,2012-12-25 15:53:00
9:53 AM,48.0,32.0,54,30.07,10.0,West,9.2,-,N/A,,Clear,270,2012-12-25 16:53:00
10:53 AM,50.0,30.9,48,30.09,10.0,West,6.9,-,N/A,,Clear,270,2012-12-25 17:53:00
11:53 AM,52.0,28.0,40,30.07,10.0,WNW,5.8,-,N/A,,Clear,290,2012-12-25 18:53:00
12:53 PM,54.0,25.0,33,30.03,10.0,Variable,3.5,-,N/A,,Clear,0,2012-12-25 19:53:00
1:53 PM,55.0,23.0,29,29.99,10.0,Calm,Calm,-,N/A,,Clear,0,2012-12-25 20:53:00
2:53 PM,54.0,23.0,30,29.98,10.0,ENE,3.5,-,N/A,,Clear,60,2012-12-25 21:53:00
3:53 PM,54.0,21.9,29,29.98,10.0,NNW,3.5,-,N/A,,Clear,340,2012-12-25 22:53:00
4:53 PM,52.0,24.1,34,29.98,10.0,North,5.8,-,N/A,,Clear,360,2012-12-25 23:53:00
5:53 PM,51.1,23.0,33,29.99,10.0,North,5.8,-,N/A,,Clear,350,2012-12-26 00:53:00
6:53 PM,50.0,21.9,33,30.01,10.0,North,5.8,-,N/A,,Clear,350,2012-12-26 01:53:00
7:53 PM,48.9,23.0,36,30.00,10.0,Calm,Calm,-,N/A,,Clear,0,2012-12-26 02:53:00
8:53 PM,46.9,24.1,41,30.00,10.0,West,4.6,-,N/A,,Clear,260,2012-12-26 03:53:00
9:53 PM,46.0,23.0,40,30.00,10.0,WNW,3.5,-,N/A,,Clear,290,2012-12-26 04:53:00
10:53 PM,45.0,24.1,44,30.01,10.0,West,3.5,-,N/A,,Clear,280,2012-12-26 05:53:00
11:53 PM,45.0,25.0,46,29.99,10.0,South,3.5,-,N/A,,Clear,170,2012-12-26 06:53:00